Location: Kitchener
(43.4500°N, 80.5000°W)
Time: 11:23:53
(UTC-04:00)

Cosmos 1939 Rocket - Visible Passes

Search period start: 31 July 2015 00:00
Search period end: 10 August 2015 00:00
Orbit: 534 x 591 km, 97.6° (Epoch: 30 July)

Date Brightness Start Highest point End Pass type
(mag) Time Alt. Az. Time Alt. Az. Time Alt. Az.
31 Jul 4.4 22:27:44 10° SSW 22:31:28 33° W 22:35:09 10° NNW visible
01 Aug 4.4 22:27:23 10° SSW 22:31:07 34° W 22:34:47 10° NNW visible
02 Aug 4.3 22:27:02 10° SSW 22:30:46 34° W 22:34:26 10° NNW visible
03 Aug 4.3 22:26:40 10° SSW 22:30:24 34° W 22:34:04 10° NNW visible
04 Aug 4.3 22:26:21 10° SSW 22:30:02 34° W 22:33:42 10° NNW visible
05 Aug 4.3 22:26:04 11° SSW 22:29:40 35° W 22:33:20 10° NNW visible
06 Aug 4.3 22:25:47 11° SSW 22:29:18 35° W 22:32:58 10° NNW visible
07 Aug 4.2 22:25:30 12° SSW 22:28:56 35° W 22:32:36 10° NNW visible
08 Aug 4.2 22:25:13 12° SSW 22:28:33 35° W 22:32:13 10° NNW visible
09 Aug 4.2 22:24:57 13° SSW 22:28:11 36° W 22:31:50 10° NNW visible
